Location: Newark
(27.9675°N, 86.8869°E)
Time: 07:25:42
(UTC+00:00)

Vanguard 3 - Pass Details

Date: 31 October 2019
Orbit: 508 x 3263 km, 33.3° (Epoch: 14 November)

Event Time Altitude Azimuth Distance (km) Brightness Sun altitude
Rises 12:04:16 0° 230° (SW) 6,500 13.0 -8.3°
Reaches altitude 10° 12:09:19 10° 226° (SW) 5,098 12.2 -9.4°
Maximum altitude 12:22:12 53° 155° (SSE) 1,893 8.9 -12.2°
Enters shadow 12:28:09 17° 84° (E) 2,589 9.0 -13.5°
Drops below altitude 10° 12:29:27 10° 80° (E) 2,960 - -13.8°
Sets 12:31:38 0° 75° (ENE) 3,658 - -14.3°
